Flag for Germany Weather past 2 weeks in Norden, Lower Saxony, Germany

Now
54 °F

Scattered clouds.


Feels Like: 54 °F
Forecast: 49 / 53 °F
Wind: 2 mph from West

Location: Norderney

Current Time: May 24, 2015 at 10:00:59 PM

Latest Report: May 24, 2015 at 9:00 PM


Visibility: 18 mi

Pressure: 30.02 "Hg

Humidity: 70%

Dew point: 44 °F

Location of NordenLocation

Historic Weather in Norden — Graph

°F

Norden temperature yesterday

Maximum temperature yesterday: 56 °F (at 12:00 AM)
Minimum temperature yesterday: 49 °F (at 6:00 AM)
Average temperature yesterday: 52 °F

Past Weeks' High & Low Weather Summary

 TemperatureHumidityPressure
High72 °F (May 11, 4:00 PM)96% (May 16, 2:00 PM)30.33 "Hg (May 16, 2:00 PM)
Low45 °F (May 15, 4:00 AM)38% (May 10, 5:00 PM)29.50 "Hg (May 18, 8:00 PM)
Average52 °F74%30.04 "Hg
* Reported May 9 8:00 PM — May 24 8:00 PM, Norden, Weather by CustomWeather, © 2015

Note: Actual official high and low records may vary slightly from our data, if they occured in-between our weather recording intervals... More about our weather records

Advertising

Norden weather history for previous 24 hours

 ConditionsComfort  
Time TempWeatherWind HumidityBarometerVisibility
8:00 PM
Sun, May 24
56 °FSunny.2 mph65%30.04 "Hg11 mi
7:00 PM54 °FSunny.3 mph68%30.05 "Hg9 mi
6:00 PM54 °FPassing clouds.3 mph68%30.06 "Hg7 mi
5:00 PM56 °FSunny.3 mph68%30.07 "Hg3 mi
4:00 PM54 °FSunny.3 mph68%30.08 "Hg3 mi
3:00 PM56 °FSunny.5 mph60%30.10 "Hg14 mi
2:00 PM55 °FSunny.5 mph57%30.11 "Hg12 mi
1:00 PM53 °FSunny.3 mph63%30.13 "Hg4 mi
12:00 PM52 °FScattered clouds.5 mph64%30.14 "Hg14 mi
11:00 AM50 °FOvercast.5 mph67%30.16 "Hg10 mi
10:00 AM50 °FOvercast.5 mph67%30.16 "Hg16 mi
9:00 AM49 °FOvercast.5 mph69%30.15 "Hg17 mi
8:00 AM49 °FOvercast.2 mph70%30.16 "Hg34 mi
7:00 AM49 °FOvercast.1 mph69%30.16 "Hg28 mi
6:00 AM49 °FOvercast.2 mph68%30.17 "Hg31 mi
5:00 AM48 °FOvercast.2 mph71%30.17 "Hg25 mi
4:00 AM48 °FOvercast.1 mph70%30.17 "Hg25 mi
3:00 AM49 °FOvercast.3 mph69%30.19 "Hg17 mi
2:00 AM49 °FOvercast.3 mph69%30.20 "Hg15 mi
1:00 AM49 °FOvercast.3 mph70%30.21 "Hg19 mi
12:00 AM49 °FOvercast.3 mph69%30.22 "Hg19 mi
11:00 PM
Sat, May 23
50 °FOvercast.3 mph69%30.22 "Hg28 mi
10:00 PM50 °FOvercast.5 mph68%30.22 "Hg19 mi
Weather by CustomWeather, © 2015

See weather overviewHow to use our weather pages